FlightSource - Aviation Photo Database

World Wide Airport Lookup


Search by ICAO
Or
Search by City

FlightSource.ca - Aviation Photo Database - Boscobel Airport Information
Airport Identification
Name: Boscobel Airport
ICAO: KOVS
IATA:
Airport Location
City: Boscobel
Region: WI
Country: United States
Continent: North America
Latitude: 43.1602
Longitude: -90.6755
Airport Information
Type: Small Airport
Elevation: 672 Feet ASL
Flight Status: KOVS
More Info: KOVS
Airport Weather    
Metar: KOVS 122053Z AUTO 31009KT 10SM OVC080 M06/M18 A3008 RMK AO2 SLP198 T10611178 58022
TAF:


Advertisement